Location: Niedergestelen
(46.3129°N, 7.7822°E)
Time: 19:57:38
(UTC+00:00)

H-2A R/B - Pass Details

Date: 01 December 2020
Orbit: 734 x 836 km, 98.2° (Epoch: 27 January)

Event Time Altitude Azimuth Distance (km) Brightness Sun altitude
Rises 19:08:15 0° 190° (S) 3,317 5.4 -34.5°
Enters shadow 19:08:46 - 192° (SSW) 3,126 5.2 -34.6°
Exits shadow 19:16:02 33° 275° (W) 1,306 3.6 -35.8°
Drops below altitude 10° 19:20:12 10° 329° (NNW) 2,331 4.8 -36.6°
Sets 19:22:43 0° 338° (NNW) 3,246 5.6 -37.0°
